Find Starlink 32648

NORAD ID: 62301 Int'l Des: 2024-239 Owner: SPXS Country: US Constellation: starlink operational
LEOCIRCULAR

Current View

Loading 3D Globe...

About Starlink 32648

Starlink 32648 (NORAD 62301) is a starlink constellation satellite (v2 mini) launched Dec 13, 2024 by SPXS of US. It operates in LEO, CIRCULAR orbit with a mass of 730.00 kg.

Upcoming Passes

Passes for default location (London). Set your location on the main map for personalized predictions.

Altitude History

Loading altitude history...

Two-Line Element Set

1 62301U 24239A 26235.96244019 .00035411 00000-0 10539-2 0 9999
2 62301 53.1583 122.0836 0001216 83.0892 277.0249 15.34410182 95207
Epoch: Aug 23, 2026 • Age: 11 hours

Current Status

Altitude 462.7 km
Apogee / Perigee N/A
Velocity 7.64 km/s
Sub-Earth Point 21.63°N, 12.01°E
Launch Date Dec 13, 2024
Age 1.6 years
Type internet

Technical Details

Classification Payload
Mass 730.00 kg
Dry Mass 700.00 kg
Total Mass 730.00 kg
Length 0.30 m
Diameter 4.10 m
Span 29.00 m
Shape Box + pan
Manufacturer SPXS
Bus Type Starlink V2M
Phase Status In Orbit
Owner/State SPXS/US

Most Searched